Weather History for KIAG - December, 2012

Change the Weather History Date:

Sunday, December 9, 2012

  Actual Average Record
Temperature  
Mean Temperature 32 °F -  
Max Temperature 39 °F 38 °F 57 °F (1991)
Min Temperature 28 °F 25 °F 1 °F (2000)
Degree Days  
Heating Degree Days 32    
Moisture  
Dew Point 28 °F    
Average Humidity 80    
Maximum Humidity 93    
Minimum Humidity 64    
Precipitation  
Precipitation 0.32 in - - ()
Sea Level Pressure  
Sea Level Pressure 30.08 in    
Wind  
Wind Speed 10 mph (East)    
Max Wind Speed 20 mph    
Max Gust Speed 30 mph    
Visibility 8 miles    
Events Rain    
Averages and records for this station are not official NWS values.
T = Trace of Precipitation, MM = Missing Value Source: NWS Daily Summary

Daily Weather History Graph

Daily Weather History Graph

Search for Another Location

Airport or City:

Trip Planner

Search our weather history database for the weather conditions in past years. The results will help you decide how hot, cold, wet, or windy it might be!

Date:

Astronomy

Dec. 09, 2012 Rise Set
Actual Time 7:36 AM EST 4:40 PM EST
Civil Twilight 7:03 AM EST 5:12 PM EST
Nautical Twilight 6:27 AM EST 5:48 PM EST
Astronomical Twilight 5:53 AM EST 6:23 PM EST
Moon 3:01 AM EST (12/9) 1:50 PM EST (12/9)
Length of Visible Light 10h 09m
Length of Day
9h 04m
Waning Crescent, 19% of the Moon is Illuminated
Dec 9
Waning Crescent
Dec 13
New
Dec 20
First Quarter
Dec 28
Full
Jan 4
Last Quarter

Hourly Weather History & Observations

Time (EST) Temp. Windchill Dew Point Humidity Pressure Visibility Wind Dir Wind Speed Gust Speed Precip Events Conditions
12:53 AM 33.1 °F 27.7 °F 27.0 °F 78% 30.21 in 10.0 mi North 5.8 mph - N/A   Overcast
1:53 AM 32.0 °F 23.6 °F 25.0 °F 75% 30.24 in 10.0 mi North 10.4 mph - N/A   Overcast
2:53 AM 30.9 °F 22.2 °F 23.0 °F 72% 30.27 in 10.0 mi North 10.4 mph - N/A   Overcast
3:53 AM 30.0 °F 20.5 °F 21.0 °F 69% 30.29 in 10.0 mi North 11.5 mph - N/A   Overcast
4:13 AM 30.2 °F 20.2 °F 19.4 °F 64% 30.24 in 10.0 mi NNE 12.7 mph - N/A   Scattered Clouds
4:53 AM 28.9 °F 21.1 °F 19.9 °F 69% 30.28 in 10.0 mi NNE 8.1 mph - N/A   Clear
5:53 AM 28.9 °F 23.9 °F 19.9 °F 69% 30.30 in 10.0 mi NE 4.6 mph - N/A   Partly Cloudy
6:53 AM 28.9 °F - 21.9 °F 75% 30.31 in 10.0 mi Calm Calm - N/A   Clear
7:08 AM 28.4 °F - 21.2 °F 74% 30.26 in 10.0 mi Calm Calm - N/A   Mostly Cloudy
7:53 AM 28.0 °F 24.2 °F 21.9 °F 78% 30.30 in 10.0 mi East 3.5 mph - N/A   Mostly Cloudy
8:53 AM 28.9 °F 22.8 °F 19.9 °F 69% 30.30 in 10.0 mi NE 5.8 mph - N/A   Overcast
9:53 AM 30.0 °F 22.4 °F 19.9 °F 66% 30.29 in 10.0 mi NE 8.1 mph - N/A   Mostly Cloudy
10:53 AM 32.0 °F 23.0 °F 21.9 °F 66% 30.27 in 10.0 mi East 11.5 mph - N/A   Mostly Cloudy
11:53 AM 33.1 °F 24.4 °F 25.0 °F 72% 30.22 in 10.0 mi East 11.5 mph - N/A   Overcast
12:53 PM 34.0 °F 24.6 °F 27.0 °F 75% 30.18 in 10.0 mi East 13.8 mph - N/A   Overcast
1:53 PM 35.6 °F 27.1 °F 28.4 °F 75% 30.11 in 10.0 mi East 12.7 mph - N/A   Overcast
2:53 PM 36.0 °F 26.7 °F 28.0 °F 73% 30.13 in 10.0 mi East 15.0 mph - N/A   Overcast
3:37 PM 35.6 °F 27.5 °F 28.4 °F 75% 30.07 in 8.0 mi East 11.5 mph - 0.00 in   Light Ice Pellets
3:53 PM 35.1 °F 25.2 °F 28.9 °F 78% 30.11 in 7.0 mi East 16.1 mph - 0.01 in Rain Light Rain
4:12 PM 33.8 °F 23.2 °F 28.4 °F 81% 30.05 in 3.0 mi East 17.3 mph - 0.05 in Rain Light Rain
4:53 PM 34.0 °F 24.2 °F 30.0 °F 85% 30.06 in 7.0 mi East 15.0 mph 24.2 mph 0.09 in Rain Light Rain
5:53 PM 34.0 °F 23.4 °F 30.0 °F 85% 30.01 in 8.0 mi East 17.3 mph 27.6 mph 0.03 in Rain Light Rain
6:32 PM 33.8 °F 22.5 °F 30.2 °F 87% 29.93 in 8.0 mi East 19.6 mph 26.5 mph 0.00 in Rain Light Rain
6:53 PM 34.0 °F 23.0 °F 30.9 °F 89% 29.97 in 5.0 mi East 18.4 mph 29.9 mph 0.01 in Rain Light Rain
7:22 PM 35.6 °F 25.5 °F 32.0 °F 87% 29.89 in 5.0 mi East 17.3 mph 25.3 mph 0.05 in Rain Rain
7:53 PM 35.1 °F 25.5 °F 32.0 °F 89% 29.90 in 4.0 mi East 15.0 mph 21.9 mph 0.11 in Rain Rain
8:11 PM 35.6 °F 27.5 °F 32.0 °F 87% 29.85 in 4.0 mi East 11.5 mph 19.6 mph 0.05 in Rain Rain
8:38 PM 35.6 °F 27.1 °F 33.8 °F 93% 29.82 in 5.0 mi ESE 12.7 mph - 0.06 in Rain Light Rain
8:53 PM 35.1 °F 26.4 °F 33.1 °F 92% 29.86 in 4.0 mi ESE 12.7 mph - 0.06 in Rain Light Rain
9:25 PM 35.6 °F 29.2 °F 33.8 °F 93% 29.79 in 6.0 mi East 8.1 mph - 0.00 in Rain Light Rain
9:43 PM 35.6 °F 27.5 °F 33.8 °F 93% 29.78 in 3.0 mi ESE 11.5 mph - 0.00 in Rain Light Rain
9:53 PM 36.0 °F 29.0 °F 34.0 °F 93% 29.82 in 3.0 mi SE 9.2 mph - 0.01 in Rain Light Rain
10:53 PM 37.9 °F 34.4 °F 36.0 °F 93% 29.79 in 4.0 mi SE 4.6 mph - 0.00 in   Light Drizzle
11:53 PM 39.9 °F 36.7 °F 37.9 °F 93% 29.73 in 7.0 mi SE 4.6 mph - 0.00 in   Overcast